Flag for Philippines Weather past 2 weeks in Mabalacat, Philippines

Now
84 °F

Partly sunny.


Feels Like: 90 °F
Forecast: 77 / 96 °F
Wind: 3 mph from East

Location: Clarkfield Pampanga International Airport

Current Time: Apr 1, 2015 at 9:24:48 AM

Latest Report: Apr 1, 2015 at 9:00 AM


Visibility: N/A

Pressure: 29.98 "Hg

Humidity: 66%

Dew point: 72 °F

Location of MabalacatLocation

Historic Weather in Mabalacat — Graph

°F

Mabalacat temperature yesterday

Maximum temperature yesterday: 93 °F (at 3:00 PM)
Minimum temperature yesterday: 73 °F (at 2:00 AM)
Average temperature yesterday: 83 °F

Past Weeks' High & Low Weather Summary

 TemperatureHumidityPressure
High93 °F (Mar 20, 3:00 PM)100% (Mar 20, 6:00 AM)30.15 "Hg (Mar 20, 6:00 AM)
Low70 °F (Mar 18, 4:00 AM)30% (Mar 19, 3:00 PM)29.83 "Hg (Mar 18, 3:00 PM)
Average81 °F65%29.96 "Hg
* Reported Mar 17 8:00 AM — Apr 1 8:00 AM, Mabalacat, Weather by CustomWeather, © 2015

Note: Actual official high and low records may vary slightly from our data, if they occured in-between our weather recording intervals... More about our weather records

Advertising

Mabalacat weather history for previous 24 hours

 ConditionsComfort  
Time TempWeatherWind HumidityBarometerVisibility
8:00 AM
Wed, Apr 1
82 °FScattered clouds.3 mph70%29.98 "HgN/A
7:00 AM79 °FPartly sunny.6 mph79%29.95 "HgN/A
6:00 AM77 °FBroken clouds.5 mph83%29.92 "HgN/A
5:00 AM75 °FPassing clouds.6 mph89%29.92 "HgN/A
4:00 AM77 °FPassing clouds.5 mph83%29.92 "HgN/A
3:00 AM77 °FPassing clouds.1 mph79%29.92 "HgN/A
2:00 AM79 °FPassing clouds.3 mph74%29.95 "HgN/A
1:00 AM79 °FPassing clouds.6 mph70%29.95 "HgN/A
12:00 AM79 °FPassing clouds.5 mph70%29.98 "HgN/A
11:00 PM
Tue, Mar 31
79 °FPartly cloudy.5 mph70%29.98 "HgN/A
10:00 PM79 °FPassing clouds.5 mph74%29.98 "HgN/A
9:00 PM82 °FPassing clouds.5 mph74%29.95 "HgN/A
8:00 PM84 °FPassing clouds.5 mph66%29.95 "HgN/A
7:00 PM86 °FPassing clouds.8 mph55%29.92 "HgN/A
6:00 PM88 °FPartly sunny.7 mph52%29.89 "HgN/A
5:00 PM91 °FScattered clouds.7 mph44%29.86 "HgN/A
4:00 PM93 °FScattered clouds.7 mph39%29.83 "HgN/A
3:00 PM93 °FScattered clouds.5 mph36%29.86 "HgN/A
2:00 PM91 °FScattered clouds.6 mph38%29.89 "HgN/A
1:00 PM90 °FPartly sunny.6 mph38%29.92 "HgN/A
12:00 PM88 °FPartly sunny.6 mph43%29.95 "HgN/A
11:00 AM88 °FPartly sunny.9 mph43%29.98 "HgN/A
10:00 AM86 °FScattered clouds.5 mph49%29.98 "HgN/A
9:00 AM84 °FScattered clouds.8 mph51%30.01 "HgN/A
Weather by CustomWeather, © 2015

See weather overviewHow to use our weather pages